Rockport, TX

10:22 PM CST on February 24, 2018 (GMT -0600)
Aransas County

Weather History for KRKP - February, 2013

Change the Weather History Date:

Sunday, February 24, 2013

  Actual Average Record
Temperature  
Mean Temperature 62 °F -  
Max Temperature 68 °F 70 °F 89 °F (2017)
Min Temperature 57 °F 50 °F 28 °F (1968)
Degree Days  
Heating Degree Days 2    
Growing Degree Days 12 (Base 50)    
Moisture  
Dew Point 61 °F    
Average Humidity 92    
Maximum Humidity 100    
Minimum Humidity 78    
Precipitation  
Precipitation 0.00 in - - ()
Sea Level Pressure  
Sea Level Pressure 29.77 in    
Wind  
Wind Speed 9 mph (East)    
Max Wind Speed 16 mph    
Max Gust Speed 22 mph    
Visibility 6 miles    
Events      
Averages and records for this station are not official NWS values.
T = Trace of Precipitation, MM = Missing Value Source: NWS Daily Summary

Daily Weather History Graph

Daily Weather History Graph

Search for Another Location

Airport or City:

Trip Planner

Search our weather history database for the weather conditions in past years. The results will help you decide how hot, cold, wet, or windy it might be!

Date:

Astronomy

Feb. 24, 2013 Rise Set
Actual Time 6:57 AM CST 6:25 PM CST
Civil Twilight 6:33 AM CST 6:49 PM CST
Nautical Twilight 6:06 AM CST 7:16 PM CST
Astronomical Twilight 5:39 AM CST 7:43 PM CST
Moon 5:37 PM CST (2/24) 5:53 AM CST (2/24)
Length of Visible Light 12h 15m
Length of Day
11h 27m
Waxing Gibbous, 99% of the Moon is Illuminated
Feb 24
Waxing Gibbous
Feb 25
Full
Mar 4
Last Quarter
Mar 11
New
Mar 19
First Quarter

Hourly Weather History & Observations

Time (CST) Temp. Dew Point Humidity Pressure Visibility Wind Dir Wind Speed Gust Speed Precip Events Conditions
12:53 AM 57.9 °F 52.0 °F 81% 29.92 in 10.0 mi East 8.1 mph - N/A   Clear
1:53 AM 57.9 °F 54.0 °F 87% 29.90 in 10.0 mi East 5.8 mph - N/A   Clear
2:53 AM 59.0 °F 55.9 °F 90% 29.88 in 10.0 mi East 8.1 mph - N/A   Clear
3:53 AM 57.9 °F 55.9 °F 93% 29.87 in 10.0 mi East 5.8 mph - N/A   Clear
4:53 AM 59.0 °F 57.0 °F 93% 29.86 in 9.0 mi East 5.8 mph - N/A   Clear
5:53 AM 57.9 °F 57.0 °F 97% 29.86 in 7.0 mi East 5.8 mph - N/A   Clear
6:53 AM 57.9 °F 57.0 °F 97% 29.86 in 7.0 mi ENE 6.9 mph - N/A   Clear
7:53 AM 60.1 °F 57.9 °F 93% 29.87 in 7.0 mi East 6.9 mph - N/A   Scattered Clouds
8:15 AM 60.8 °F 59.0 °F 94% 29.87 in 7.0 mi ENE 5.8 mph - N/A   Mostly Cloudy
8:53 AM 62.1 °F 59.0 °F 90% 29.88 in 8.0 mi NE 8.1 mph - N/A   Mostly Cloudy
9:22 AM 62.6 °F 59.0 °F 88% 29.87 in 10.0 mi ENE 9.2 mph - N/A   Scattered Clouds
9:53 AM 66.0 °F 60.1 °F 81% 29.87 in 10.0 mi ENE 11.5 mph - N/A   Clear
10:18 AM 66.2 °F 60.8 °F 83% 29.85 in 10.0 mi East 10.4 mph - N/A   Mostly Cloudy
10:53 AM 68.0 °F 61.0 °F 78% 29.86 in 10.0 mi East 10.4 mph - N/A   Overcast
11:53 AM 66.9 °F 60.1 °F 79% 29.85 in 10.0 mi East 9.2 mph - N/A   Overcast
12:53 PM 66.9 °F 60.1 °F 79% 29.81 in 9.0 mi East 8.1 mph - N/A   Overcast
1:53 PM 64.9 °F 62.1 °F 90% 29.78 in 7.0 mi ENE 6.9 mph - 0.00 in   Overcast
2:53 PM 64.9 °F 62.1 °F 90% 29.74 in 6.0 mi ENE 10.4 mph - 0.00 in   Overcast
3:22 PM 64.4 °F 62.6 °F 94% 29.71 in 7.0 mi East 8.1 mph - 0.00 in   Overcast
3:53 PM 64.9 °F 62.1 °F 90% 29.70 in 7.0 mi ENE 9.2 mph - 0.00 in   Overcast
4:53 PM 64.9 °F 62.1 °F 90% 29.70 in 6.0 mi ENE 11.5 mph - N/A   Overcast
5:29 PM 64.4 °F 62.6 °F 94% 29.68 in 6.0 mi East 15.0 mph - N/A   Overcast
5:44 PM 64.4 °F 62.6 °F 94% 29.68 in 4.0 mi East 16.1 mph - N/A   Overcast
5:53 PM 64.0 °F 62.1 °F 93% 29.70 in 4.0 mi East 16.1 mph - N/A   Overcast
6:39 PM 62.6 °F 62.6 °F 100% 29.69 in 3.0 mi East 12.7 mph - N/A   Overcast
6:49 PM 62.6 °F 62.6 °F 100% 29.68 in 2.0 mi East 15.0 mph - N/A   Overcast
6:50 PM 63.0 °F 62.1 °F 97% 29.69 in 2.0 mi East 16.1 mph - N/A   Overcast
7:03 PM 62.6 °F 62.6 °F 100% 29.68 in 3.0 mi East 13.8 mph - N/A   Overcast
7:14 PM 62.6 °F 62.6 °F 100% 29.68 in 2.0 mi East 16.1 mph 21.9 mph N/A   Overcast
7:23 PM 62.6 °F 62.6 °F 100% 29.68 in 1.5 mi East 12.7 mph 21.9 mph N/A   Overcast
7:39 PM 62.6 °F 62.6 °F 100% 29.68 in 2.0 mi East 13.8 mph - N/A   Overcast
7:46 PM 62.6 °F 62.6 °F 100% 29.68 in 2.5 mi East 13.8 mph - N/A   Overcast
7:53 PM 63.0 °F 62.1 °F 97% 29.69 in 2.5 mi East 15.0 mph - N/A   Overcast
8:15 PM 62.6 °F 62.6 °F 100% 29.69 in 3.0 mi East 11.5 mph - N/A   Overcast
8:53 PM 64.0 °F 63.0 °F 96% 29.70 in 4.0 mi East 8.1 mph - N/A   Overcast
9:53 PM 63.0 °F 62.1 °F 97% 29.67 in 7.0 mi East 15.0 mph - N/A   Overcast
10:53 PM 64.0 °F 62.1 °F 93% 29.67 in 5.0 mi East 10.4 mph - N/A   Overcast
11:53 PM 64.0 °F 63.0 °F 96% 29.63 in 5.0 mi East 6.9 mph - N/A   Overcast